Hourly Data Report for September 30, 2017

All times are specified in Local Standard Time (LST). Add 1 hour to adjust for Daylight Saving Time where and when it is observed.

HOLMAN CS
NORTHWEST TERRITORIES

70°45'41.002" N
117°48'00.002" W
29.90 m
2502505
71029
XHI

Download Data

Hourly Data (September 2017)
Hourly Data Report for September 30, 2017
Temp Definition
°C
Dew Point Temp Definition
°C
Rel Hum Definition
%
Wind Dir Definition
10's deg

Wind Spd Definition
km/h
Visibility Definition
km
Stn Press Definition
kPa
Hmdx Definition


Wind Chill Definition


Weather Definition


TIME
00:00 -3.2 -4.7 89 10 40   100.80   -12 LegendNANA
01:00 -3.4 -4.5 92 9 38   100.83   -12 LegendNANA
02:00 -3.4 -4.7 91 10 36   100.88   -12 LegendNANA
03:00 -3.3 -4.4 92 9 35   100.93   -11 LegendNANA
04:00 -3.2 -4.7 89 10 38   100.95   -11 LegendNANA
05:00 -3.0 -4.6 88 10 34   100.98   -11 LegendNANA
06:00 -2.9 -4.5 89 10 35   101.00   -11 LegendNANA
07:00 -2.7 -4.2 90 10 30   101.03   -10 LegendNANA
08:00 -2.4 -4.0 89 10 34   101.03   -10 LegendNANA
09:00 -1.9 -3.7 88 10 25   101.07   -8 LegendNANA
10:00 -1.9 -3.6 88 11 31   101.07   -9 LegendNANA
11:00 -1.6 -3.5 87 11 28   101.05   -8 LegendNANA
12:00 -1.0 -2.9 87 11 26   101.02   -7 LegendNANA
13:00 -0.7 -2.3 89 12 30   101.03   -7 LegendNANA
14:00 -0.9 -2.7 88 11 32   101.02   -8 LegendNANA
15:00 -0.8 -2.4 89 11 29   100.98   -7 LegendNANA
16:00 -0.6 -1.9 91 11 29   100.95   -7 LegendNANA
17:00 -0.9 -1.9 93 11 30   100.96   -8 LegendNANA
18:00 -0.1 -1.0 94 12 33   100.91   -7 LegendNANA
19:00 0.5 -0.1 96 12 25   100.89     LegendNANA
20:00 1.5 1.1 97 18 19   100.88     LegendNANA
21:00 1.4 1.1 98 23 11   100.87     LegendNANA
22:00 1.3 1.0 98 27 18   100.88     LegendNANA
23:00 1.3 0.0 91 29 22   100.91     LegendNANA

Notes on Data Quality.

Legend

  • E = Estimated
  • M = Missing
  • NA = Not Available
  • ‡ = Partner data that is not subject to review by the National Climate Archives
Date modified: